Погода в Кипучем

Украина / Луганская область     48°26′22″N   38°43′29″E
темп.,
°C
ветер,
м/с
пор.,
м/с
влажн.,
%
обл.,
%
осадки,
мм/ч
давл.,
гПа
погр.,
м
9 марта, вт
вт923:00−1зсз5896100 1.1 1011525
02:00−2з4788100 1.3 1011350
05:00−3з598643 0.0 1012390
08:00−2з687831 0.0 1014844
11:000зсз686097 0.1 10151429
14:000зсз796299 0.3 10161426
17:00−2сз6865100 0.2 10171037
20:00−4сз477185 0.3 1020821
10 марта, ср
ср1023:00−4сз467077 0.1 1021934
02:00−5ссз467985 0.1 1023675
05:00−6ссз565990 0.1 1024937
08:00−6ссз455745 0.1 1026975
11:00−4ссз444656 0.0 10261194
14:00−2ссз343947 0.0 10261326
17:00−3с344372 0.0 10251024
20:00−5св345050 0.0 1027555
11 марта, чт
чт1123:00−6св45510 0.0 1027529
02:00−7св46520 0.0 1028662
05:00−8св46570 0.0 1028645
08:00−8св57530 0.0 1030697
11:00−7всв56410 0.0 1030982
14:00−6всв56290 0.0 10291107
17:00−7всв57330 0.0 10291059
20:00−8всв67360 0.0 1031980
12 марта, пт
пт1223:00−9всв57410 0.0 1032841
02:00−10всв46460 0.0 1032704
05:00−11в46500 0.0 1033586
08:00−10в46460 0.0 1034539
11:00−6в44310 0.0 1033873
14:00−4вюв44270 0.0 10321071
17:00−5вюв343167 0.0 10321011
20:00−5юв563583 0.0 1033953
13 марта, сб
сб1323:00−6ююв474166 0.0 1033798
02:00−7ююв473978 0.0 1033625
05:00−7ююв593771 0.0 1032480
08:00−6ююв693435 0.0 1033581
11:00−2ююв68290 0.0 1032739
14:000ююв57284 0.0 1030797
17:00−1ююв473410 0.0 1029577
20:00−3ююв49395 0.0 1029511